Frankfort, MI

6:46 AM EDT on September 20, 2019 (GMT -0400)
Frankfort

Weather History for KFKS - August, 2019

Change the Weather History Date:

Thursday, August 22, 2019

  Actual Average (KMBL) Record (KMBL)
Temperature  
Mean Temperature 61 °F -  
Max Temperature 71 °F 76 °F 90 °F (1968)
Min Temperature 51 °F 56 °F 42 °F (1950)
Degree Days  
Heating Degree Days 4    
Growing Degree Days 11 (Base 50)    
Moisture  
Dew Point 48 °F    
Average Humidity 59    
Maximum Humidity 85    
Minimum Humidity 36    
Precipitation  
Precipitation 0.00 in - - ()
Sea Level Pressure  
Sea Level Pressure 30.07 in    
Wind  
Wind Speed 3 mph (North)    
Max Wind Speed 10 mph    
Max Gust Speed 17 mph    
Visibility 10 miles    
Events      
Averages and records for this station are not official NWS values.
T = Trace of Precipitation, MM = Missing Value Source: NWS Daily Summary

Daily Weather History Graph

Daily Weather History Graph

Search for Another Location

Airport or City:

Astronomy

Aug. 22, 2019 Rise Set
Actual Time 6:55 AM EDT 8:39 PM EDT
Civil Twilight 6:24 AM EDT 9:10 PM EDT
Nautical Twilight 5:46 AM EDT 9:47 PM EDT
Astronomical Twilight 5:05 AM EDT 10:28 PM EDT
Moon No Moon Rise 1:46 PM EDT (8/22)
Length of Visible Light 14h 45m
Length of Day
13h 43m
Waning Gibbous, 60% of the Moon is Illuminated
Aug 22
Waning Gibbous
Aug 23
Last Quarter
Aug 30
New
Sep 5
First Quarter
Sep 14
Full

Hourly Weather History & Observations

Time (EDT) Temp. Dew Point Humidity Pressure Visibility Wind Dir Wind Speed Gust Speed Precip Events Conditions
12:15 AM 67.6 °F 51.1 °F 55% 30.01 in 10.0 mi NNE 4.6 mph - N/A   Clear
12:20 AM 67.5 °F 51.1 °F 56% 30.00 in 10.0 mi NNE 3.5 mph - N/A   Clear
12:38 AM 67.1 °F 50.2 °F 55% 30.01 in 10.0 mi North 5.8 mph - N/A   Clear
12:56 AM 66.7 °F 50.4 °F 56% 30.01 in 10.0 mi North 4.6 mph - N/A   Clear
1:15 AM 66.2 °F 50.9 °F 58% 30.01 in 10.0 mi North 3.5 mph - N/A   Clear
1:35 AM 66.2 °F 50.0 °F 56% 30.00 in 10.0 mi North 3.5 mph - N/A   Clear
1:59 AM 65.8 °F 50.9 °F 58% 30.01 in 10.0 mi NNE 3.5 mph - N/A   Clear
2:17 AM 65.3 °F 49.5 °F 57% 30.01 in 10.0 mi North 4.6 mph - N/A   Clear
2:35 AM 65.3 °F 49.1 °F 56% 30.01 in 10.0 mi Calm Calm - N/A   Clear
2:55 AM 64.6 °F 49.5 °F 58% 30.01 in 10.0 mi Calm Calm - N/A   Clear
3:15 AM 63.0 °F 49.1 °F 61% 30.02 in 10.0 mi Calm Calm - N/A   Clear
3:19 AM 61.0 °F 49.8 °F 67% 30.02 in 10.0 mi Calm Calm - N/A   Clear
3:37 AM 58.3 °F 50.4 °F 75% 30.02 in 10.0 mi Calm Calm - N/A   Clear
3:55 AM 57.2 °F 49.3 °F 75% 30.02 in 10.0 mi Calm Calm - N/A   Clear
4:15 AM 56.7 °F 49.3 °F 76% 30.01 in 10.0 mi Calm Calm - N/A   Clear
4:16 AM 56.7 °F 49.3 °F 76% 30.01 in 10.0 mi Calm Calm - N/A   Clear
4:35 AM 55.6 °F 49.1 °F 79% 30.01 in 10.0 mi Calm Calm - N/A   Clear
4:40 AM 55.2 °F 48.2 °F 77% 30.01 in 10.0 mi Calm Calm - N/A   Clear
5:09 AM 53.8 °F 48.2 °F 81% 30.01 in 10.0 mi Calm Calm - N/A   Clear
5:18 AM 54.0 °F 48.9 °F 83% 30.01 in 10.0 mi Calm Calm - N/A   Clear
5:36 AM 53.2 °F 48.2 °F 83% 30.01 in 10.0 mi Calm Calm - N/A   Clear
5:55 AM 52.7 °F 48.2 °F 85% 30.02 in 10.0 mi Calm Calm - N/A   Clear
5:56 AM 52.7 °F 48.2 °F 85% 30.02 in 10.0 mi Calm Calm - N/A   Clear
6:15 AM 52.7 °F 48.4 °F 85% 30.03 in 10.0 mi Calm Calm - N/A   Clear
6:16 AM 52.7 °F 48.4 °F 85% 30.03 in 10.0 mi Calm Calm - N/A   Clear
6:51 AM 51.6 °F 47.3 °F 85% 30.04 in 10.0 mi Calm Calm - N/A   Scattered Clouds
6:55 AM 51.8 °F 47.5 °F 85% 30.04 in 10.0 mi Calm Calm - N/A   Scattered Clouds
7:18 AM 51.8 °F 47.3 °F 85% 30.05 in 10.0 mi Calm Calm - N/A   Scattered Clouds
7:36 AM 52.2 °F 47.8 °F 85% 30.05 in 10.0 mi Calm Calm - N/A   Clear
7:55 AM 52.7 °F 48.2 °F 85% 30.05 in 10.0 mi Calm Calm - N/A   Clear
7:56 AM 52.7 °F 48.2 °F 85% 30.05 in 10.0 mi Calm Calm - N/A   Clear
8:37 AM 59.0 °F 51.8 °F 77% 30.05 in 10.0 mi Calm Calm - N/A   Clear
8:55 AM 61.2 °F 52.2 °F 72% 30.05 in 10.0 mi Calm Calm - N/A   Clear
9:15 AM 65.3 °F 53.1 °F 65% 30.06 in 10.0 mi Calm Calm - N/A   Clear
9:16 AM 65.5 °F 53.2 °F 65% 30.06 in 10.0 mi Calm Calm - N/A   Clear
9:35 AM 68.2 °F 49.3 °F 51% 30.06 in 10.0 mi North 5.8 mph - N/A   Clear
9:40 AM 68.4 °F 49.1 °F 50% 30.06 in 10.0 mi North 4.6 mph - N/A   Clear
9:58 AM 68.9 °F 49.1 °F 49% 30.06 in 10.0 mi NNW 6.9 mph - N/A   Scattered Clouds
10:16 AM 68.9 °F 48.7 °F 49% 30.06 in 10.0 mi NNW 5.8 mph - N/A   Scattered Clouds
10:35 AM 69.4 °F 48.9 °F 48% 30.07 in 10.0 mi North 10.4 mph - N/A   Clear
10:56 AM 70.0 °F 49.3 °F 48% 30.07 in 10.0 mi NNE 8.1 mph - N/A   Scattered Clouds
11:19 AM 70.3 °F 48.7 °F 46% 30.07 in 10.0 mi North 8.1 mph - N/A   Scattered Clouds
11:37 AM 70.3 °F 47.5 °F 44% 30.08 in 10.0 mi North 6.9 mph - N/A   Clear
11:55 AM 70.3 °F 48.6 °F 46% 30.08 in 10.0 mi North 4.6 mph - N/A   Clear
12:15 PM 70.3 °F 48.4 °F 46% 30.08 in 10.0 mi North 8.1 mph - N/A   Clear
12:35 PM 70.9 °F 48.2 °F 44% 30.08 in 10.0 mi North 6.9 mph - N/A   Clear
12:39 PM 70.7 °F 48.9 °F 46% 30.08 in 10.0 mi NNE 8.1 mph - N/A   Clear
12:58 PM 70.7 °F 47.7 °F 44% 30.08 in 10.0 mi North 9.2 mph - N/A   Clear
1:16 PM 71.4 °F 49.1 °F 45% 30.09 in 10.0 mi North 6.9 mph - N/A   Clear
1:35 PM 71.4 °F 46.9 °F 42% 30.09 in 10.0 mi North 9.2 mph - N/A   Clear
1:55 PM 71.8 °F 44.1 °F 37% 30.08 in 10.0 mi NNW 9.2 mph 17.3 mph N/A   Clear
1:56 PM 71.8 °F 44.1 °F 37% 30.08 in 10.0 mi NNW 9.2 mph 17.3 mph N/A   Clear
2:19 PM 71.6 °F 46.8 °F 41% 30.09 in 10.0 mi North 6.9 mph - N/A   Clear
2:37 PM 71.4 °F 50.0 °F 47% 30.09 in 10.0 mi North 8.1 mph - N/A   Clear
2:55 PM 70.3 °F 48.2 °F 45% 30.09 in 10.0 mi North 8.1 mph - N/A   Clear
2:56 PM 70.3 °F 48.4 °F 46% 30.09 in 10.0 mi North 9.2 mph - N/A   Clear
3:15 PM 71.1 °F 47.7 °F 43% 30.09 in 10.0 mi North 10.4 mph 16.1 mph N/A   Clear
3:35 PM 70.9 °F 46.8 °F 42% 30.09 in 10.0 mi North 8.1 mph 16.1 mph N/A   Clear
3:58 PM 71.6 °F 46.8 °F 41% 30.09 in 10.0 mi NNE 8.1 mph - N/A   Clear
4:16 PM 71.6 °F 44.1 °F 37% 30.09 in 10.0 mi NE 5.8 mph - N/A   Clear
4:35 PM 71.4 °F 43.3 °F 36% 30.08 in 10.0 mi North 6.9 mph - N/A   Clear
4:36 PM 71.4 °F 43.3 °F 36% 30.08 in 10.0 mi NNW 4.6 mph - N/A   Clear
4:55 PM 71.8 °F 44.4 °F 37% 30.08 in 10.0 mi North 5.8 mph - N/A   Clear
5:19 PM 71.2 °F 45.7 °F 40% 30.08 in 10.0 mi North 9.2 mph 16.1 mph N/A   Clear
5:37 PM 71.2 °F 45.9 °F 40% 30.08 in 10.0 mi North 5.8 mph - N/A   Clear
5:55 PM 70.9 °F 45.0 °F 39% 30.08 in 10.0 mi North 8.1 mph - N/A   Clear
5:56 PM 70.9 °F 45.0 °F 39% 30.08 in 10.0 mi NNW 8.1 mph - N/A   Clear
6:15 PM 70.7 °F 45.1 °F 40% 30.08 in 10.0 mi NNE 8.1 mph - N/A   Clear
6:16 PM 70.7 °F 45.3 °F 40% 30.08 in 10.0 mi NNE 8.1 mph - N/A   Clear
6:35 PM 70.7 °F 46.4 °F 42% 30.08 in 10.0 mi North 6.9 mph - N/A   Clear
6:40 PM 70.2 °F 46.6 °F 43% 30.08 in 10.0 mi North 8.1 mph - N/A   Clear
6:58 PM 69.6 °F 46.6 °F 44% 30.08 in 10.0 mi North 4.6 mph - N/A   Clear
7:25 PM 68.9 °F 47.3 °F 46% 30.08 in 10.0 mi NNW 4.6 mph - N/A   Clear
7:35 PM 68.2 °F 47.7 °F 48% 30.09 in 10.0 mi North 3.5 mph - N/A   Clear
8:14 PM 66.6 °F 48.9 °F 53% 30.10 in 10.0 mi North 4.6 mph - N/A   Clear
8:15 PM 66.4 °F 48.9 °F 53% 30.10 in 10.0 mi North 3.5 mph - N/A   Clear
8:16 PM 66.4 °F 48.9 °F 53% 30.10 in 10.0 mi NNW 3.5 mph - N/A   Clear
8:35 PM 64.9 °F 49.1 °F 56% 30.10 in 10.0 mi Calm Calm - N/A   Clear
8:36 PM 64.9 °F 49.1 °F 56% 30.10 in 10.0 mi Calm Calm - N/A   Clear
8:59 PM 62.2 °F 49.1 °F 62% 30.10 in 10.0 mi Calm Calm - N/A   Clear
9:17 PM 60.3 °F 49.6 °F 68% 30.11 in 10.0 mi Calm Calm - N/A   Clear
9:35 PM 59.0 °F 49.5 °F 71% 30.11 in 10.0 mi Calm Calm - N/A   Clear
9:36 PM 58.8 °F 49.3 °F 71% 30.11 in 10.0 mi Calm Calm - N/A   Clear
9:55 PM 58.1 °F 49.6 °F 73% 30.11 in 10.0 mi Calm Calm - N/A   Clear
10:15 PM 57.2 °F 49.5 °F 75% 30.12 in 10.0 mi Calm Calm - N/A   Clear
10:19 PM 57.0 °F 49.3 °F 75% 30.12 in 10.0 mi Calm Calm - N/A   Clear
10:38 PM 55.8 °F 48.7 °F 77% 30.12 in 10.0 mi Calm Calm - N/A   Clear
10:56 PM 55.2 °F 48.4 °F 78% 30.13 in 10.0 mi Calm Calm - N/A   Clear
11:15 PM 55.0 °F 48.9 °F 80% 30.13 in 10.0 mi Calm Calm - N/A   Clear
11:35 PM 55.0 °F 49.1 °F 80% 30.13 in 10.0 mi Calm Calm - N/A   Scattered Clouds
11:36 PM 55.0 °F 49.1 °F 80% 30.13 in 10.0 mi Calm Calm - N/A   Scattered Clouds
11:58 PM 54.0 °F 49.1 °F 84% 30.13 in 10.0 mi Calm Calm - N/A   Scattered Clouds